CCA3838 ZBTJ-ZBUL

Flight info

Callsign CCA3838
Flight time 0h 55m
Altitude 34100
Route IDKEX B339 ERVEB H13 HLH
Aircraft A320/M-SDE3FGHIRWY/LB1

Departure

Time 2026-05-05 05:40
Airport Tianjin Binhai International Airport (ZBTJ)

Arrival

Time 2026-05-05 06:35
Airport Ulanhot Yilelite Airport (ZBUL)
Time Latitude Longitude Altitude Speed Heading
2026-05-05 05:37 39.12019 117.35130 20 ft 0 kts 155°
2026-05-05 05:37 39.12004 117.35139 19 ft 4 kts 155°
2026-05-05 05:37 39.11962 117.35164 20 ft 9 kts 155°
2026-05-05 05:37 39.11896 117.35203 19 ft 13 kts 155°
2026-05-05 05:38 39.11799 117.35259 19 ft 17 kts 154°
2026-05-05 05:38 39.11680 117.35337 20 ft 21 kts 153°
2026-05-05 05:38 39.11538 117.35425 19 ft 23 kts 155°
2026-05-05 05:38 39.11387 117.35516 19 ft 24 kts 155°
2026-05-05 05:39 39.11231 117.35588 19 ft 22 kts 195°
2026-05-05 05:39 39.11172 117.35433 19 ft 20 kts 253°
2026-05-05 05:39 39.11237 117.35357 20 ft 12 kts 329°
2026-05-05 05:39 39.11394 117.35259 21 ft 55 kts 335°
2026-05-05 05:40 39.11941 117.34916 22 ft 117 kts 335°
2026-05-05 05:40 39.12834 117.34378 23 ft 164 kts 334°
2026-05-05 05:40 39.13934 117.33812 479 ft 172 kts 353°
2026-05-05 05:40 39.15064 117.34264 949 ft 177 kts 48°
2026-05-05 05:41 39.15763 117.35567 1424 ft 191 kts 54°
2026-05-05 05:41 39.16798 117.36777 1794 ft 214 kts 24°
2026-05-05 05:41 39.18294 117.37112 2160 ft 229 kts 345°
2026-05-05 05:41 39.19874 117.36451 2553 ft 250 kts 334°
2026-05-05 05:42 39.21569 117.35603 3047 ft 270 kts 336°
2026-05-05 05:42 39.23344 117.34704 3882 ft 276 kts 334°
2026-05-05 05:42 39.25134 117.33804 4846 ft 277 kts 333°
2026-05-05 05:42 39.26944 117.32900 5663 ft 281 kts 334°
2026-05-05 05:43 39.28782 117.31987 6495 ft 285 kts 334°
2026-05-05 05:43 39.30643 117.31066 7547 ft 288 kts 334°
2026-05-05 05:43 39.32522 117.30136 8769 ft 291 kts 335°
2026-05-05 05:43 39.34427 117.29192 9916 ft 295 kts 335°
2026-05-05 05:44 39.36398 117.28213 10652 ft 315 kts 335°
2026-05-05 05:44 39.38496 117.27169 11147 ft 340 kts 336°
2026-05-05 05:44 39.40813 117.26016 11562 ft 364 kts 336°
2026-05-05 05:44 39.43233 117.24815 12018 ft 379 kts 336°
2026-05-05 05:45 39.45715 117.23585 12899 ft 384 kts 336°
2026-05-05 05:45 39.48266 117.22506 13799 ft 390 kts 347°
2026-05-05 05:45 39.50960 117.22334 14482 ft 398 kts
2026-05-05 05:45 39.53658 117.23237 15047 ft 404 kts 17°
2026-05-05 05:46 39.56316 117.24440 15598 ft 406 kts 17°
2026-05-05 05:46 39.58988 117.25666 16154 ft 409 kts 17°
2026-05-05 05:46 39.61682 117.26904 16685 ft 412 kts 17°
2026-05-05 05:46 39.64390 117.28142 17221 ft 414 kts 17°
2026-05-05 05:47 39.67120 117.29382 17751 ft 417 kts 17°
2026-05-05 05:47 39.69867 117.30625 18220 ft 420 kts 17°
2026-05-05 05:47 39.72639 117.31876 18653 ft 423 kts 17°
2026-05-05 05:47 39.75392 117.33118 19094 ft 425 kts 17°
2026-05-05 05:48 39.78193 117.34385 19528 ft 428 kts 17°
2026-05-05 05:48 39.81011 117.35661 19969 ft 430 kts 17°
2026-05-05 05:48 39.83843 117.36949 20395 ft 432 kts 16°
2026-05-05 05:48 39.86691 117.38245 20832 ft 434 kts 16°
2026-05-05 05:49 39.89550 117.39544 21244 ft 437 kts 16°
2026-05-05 05:49 39.92428 117.40851 21635 ft 439 kts 16°
2026-05-05 05:49 39.95321 117.42166 22019 ft 441 kts 16°
2026-05-05 05:49 39.98227 117.43490 22389 ft 444 kts 16°
2026-05-05 05:50 40.01150 117.44827 22770 ft 446 kts 16°
2026-05-05 05:50 40.04089 117.46173 23143 ft 449 kts 16°
2026-05-05 05:50 40.07043 117.47526 23487 ft 451 kts 16°
2026-05-05 05:50 40.10013 117.48883 23818 ft 453 kts 16°
2026-05-05 05:51 40.12991 117.50242 24142 ft 454 kts 16°
2026-05-05 05:51 40.15984 117.51610 24426 ft 457 kts 15°
2026-05-05 05:51 40.18987 117.52985 24719 ft 458 kts 15°
2026-05-05 05:51 40.21991 117.54366 25011 ft 460 kts 15°
2026-05-05 05:52 40.25016 117.55759 25294 ft 461 kts 15°
2026-05-05 05:52 40.28050 117.57155 25557 ft 463 kts 15°
2026-05-05 05:52 40.31098 117.58561 25811 ft 465 kts 16°
2026-05-05 05:52 40.34155 117.59972 26075 ft 467 kts 15°
2026-05-05 05:53 40.37224 117.61389 26338 ft 468 kts 15°
2026-05-05 05:53 40.40302 117.62816 26625 ft 469 kts 15°
2026-05-05 05:53 40.43376 117.64242 27033 ft 468 kts 15°
2026-05-05 05:53 40.46442 117.65663 27440 ft 466 kts 15°
2026-05-05 05:54 40.49501 117.67080 27810 ft 466 kts 15°
2026-05-05 05:54 40.52555 117.68497 28183 ft 465 kts 15°
2026-05-05 05:54 40.55603 117.69911 28580 ft 464 kts 15°
2026-05-05 05:54 40.58644 117.71321 28979 ft 463 kts 15°
2026-05-05 05:55 40.61682 117.72731 29343 ft 462 kts 15°
2026-05-05 05:55 40.64666 117.74120 29727 ft 460 kts 15°
2026-05-05 05:55 40.67680 117.75523 30065 ft 459 kts 15°
2026-05-05 05:55 40.70687 117.76924 30389 ft 458 kts 14°
2026-05-05 05:56 40.73691 117.78325 30720 ft 457 kts 14°
2026-05-05 05:56 40.76688 117.79722 31035 ft 457 kts 14°
2026-05-05 05:56 40.79683 117.81121 31312 ft 457 kts 15°
2026-05-05 05:56 40.82679 117.82523 31620 ft 456 kts 14°
2026-05-05 05:57 40.85657 117.83921 31963 ft 455 kts 14°
2026-05-05 05:57 40.88639 117.85323 32244 ft 454 kts 14°
2026-05-05 05:57 40.91609 117.86720 32579 ft 453 kts 14°
2026-05-05 05:57 40.94576 117.88115 32945 ft 451 kts 14°
2026-05-05 05:58 40.97526 117.89500 33277 ft 450 kts 14°
2026-05-05 05:58 41.00479 117.90884 33591 ft 449 kts 14°
2026-05-05 05:58 41.03419 117.92265 33886 ft 448 kts 14°
2026-05-05 05:58 41.06355 117.93649 34169 ft 447 kts 14°
2026-05-05 05:59 41.09283 117.95032 34432 ft 447 kts 14°
2026-05-05 05:59 41.12210 117.96416 34677 ft 446 kts 14°
2026-05-05 05:59 41.15135 117.97801 34780 ft 448 kts 14°
2026-05-05 05:59 41.18074 117.99192 34794 ft 450 kts 14°
2026-05-05 06:00 41.22980 118.01518 34788 ft 451 kts 14°
2026-05-05 06:00 41.28889 118.04327 34794 ft 451 kts 14°
2026-05-05 06:01 41.34803 118.07136 34783 ft 451 kts 14°
2026-05-05 06:01 41.40719 118.09961 34792 ft 452 kts 14°
2026-05-05 06:02 41.47707 118.13289 34789 ft 461 kts 14°
2026-05-05 06:02 41.52745 118.15703 34781 ft 464 kts 14°
2026-05-05 06:03 41.58822 118.18627 34778 ft 464 kts 14°
2026-05-05 06:03 41.64901 118.21545 34764 ft 465 kts 14°
2026-05-05 06:04 41.70991 118.24478 34768 ft 465 kts 14°
2026-05-05 06:04 41.77079 118.27422 34764 ft 465 kts 14°
2026-05-05 06:05 41.83166 118.30361 34757 ft 465 kts 14°
2026-05-05 06:05 41.89261 118.33302 34739 ft 466 kts 14°
2026-05-05 06:06 41.95354 118.36265 34728 ft 466 kts 14°
2026-05-05 06:06 42.01458 118.39241 34712 ft 467 kts 14°
2026-05-05 06:07 42.07568 118.42224 34699 ft 467 kts 14°
2026-05-05 06:07 42.13441 118.46054 34692 ft 480 kts 35°
2026-05-05 06:08 42.18421 118.52138 34683 ft 484 kts 38°
2026-05-05 06:08 42.23360 118.58325 34676 ft 485 kts 38°
2026-05-05 06:09 42.28314 118.64528 34671 ft 487 kts 38°
2026-05-05 06:09 42.33259 118.70703 34653 ft 488 kts 38°
2026-05-05 06:10 42.38248 118.76947 34647 ft 489 kts 38°
2026-05-05 06:10 42.43243 118.83212 34642 ft 490 kts 38°
2026-05-05 06:11 42.48238 118.89502 34639 ft 491 kts 38°
2026-05-05 06:11 42.53237 118.95812 34632 ft 491 kts 38°
2026-05-05 06:12 42.58240 119.02138 34633 ft 492 kts 38°
2026-05-05 06:12 42.63240 119.08464 34630 ft 492 kts 38°
2026-05-05 06:13 42.68238 119.14813 34630 ft 491 kts 38°
2026-05-05 06:13 42.73224 119.21164 34631 ft 491 kts 38°
2026-05-05 06:14 42.78207 119.27524 34638 ft 491 kts 38°
2026-05-05 06:14 42.83180 119.33888 34638 ft 491 kts 38°
2026-05-05 06:15 42.88151 119.40255 34637 ft 490 kts 38°
2026-05-05 06:15 42.98979 119.54163 34633 ft 490 kts 38°
2026-05-05 06:16 43.18801 119.79877 34650 ft 492 kts 38°
2026-05-05 06:16 43.38634 120.05825 34675 ft 493 kts 38°
2026-05-05 06:17 43.58461 120.31998 34699 ft 494 kts 38°
2026-05-05 06:17 43.66883 120.43197 34495 ft 497 kts 38°
2026-05-05 06:18 43.69367 120.46509 34010 ft 496 kts 38°
2026-05-05 06:18 43.71850 120.49820 33518 ft 497 kts 39°
2026-05-05 06:18 43.74341 120.53143 32981 ft 498 kts 39°
2026-05-05 06:18 43.76780 120.56402 32461 ft 500 kts 39°
2026-05-05 06:19 43.79293 120.59763 31940 ft 505 kts 39°
2026-05-05 06:19 43.81823 120.63156 31427 ft 508 kts 39°
2026-05-05 06:19 43.84364 120.66575 30928 ft 510 kts 39°
2026-05-05 06:19 43.86720 120.69751 30466 ft 511 kts 39°
2026-05-05 06:20 43.89353 120.73304 29965 ft 513 kts 39°
2026-05-05 06:20 43.91914 120.76761 29455 ft 514 kts 40°
2026-05-05 06:20 43.94479 120.80226 28886 ft 516 kts 40°
2026-05-05 06:20 43.97053 120.83704 28333 ft 517 kts 40°
2026-05-05 06:21 43.99634 120.87196 27803 ft 519 kts 40°
2026-05-05 06:21 44.02219 120.90699 27266 ft 520 kts 40°
2026-05-05 06:21 44.04808 120.94210 26749 ft 521 kts 40°
2026-05-05 06:21 44.07376 120.97690 26239 ft 523 kts 40°
2026-05-05 06:22 44.09981 121.01223 25745 ft 524 kts 40°
2026-05-05 06:22 44.12590 121.04776 25252 ft 526 kts 40°
2026-05-05 06:22 44.15205 121.08351 24766 ft 527 kts 40°
2026-05-05 06:22 44.17802 121.11906 24296 ft 529 kts 40°
2026-05-05 06:23 44.20462 121.15551 23821 ft 528 kts 40°
2026-05-05 06:23 44.23040 121.19087 23367 ft 526 kts 40°
2026-05-05 06:23 44.25645 121.22657 22854 ft 524 kts 40°
2026-05-05 06:23 44.31846 121.31162 21656 ft 517 kts 40°
2026-05-05 06:24 44.41852 121.44973 19589 ft 494 kts 40°
2026-05-05 06:24 44.51550 121.58428 17691 ft 486 kts 40°
2026-05-05 06:24 44.61007 121.71606 15642 ft 473 kts 40°
2026-05-05 06:24 44.70241 121.84534 14007 ft 465 kts 40°
2026-05-05 06:25 44.79319 121.97305 13359 ft 462 kts 40°
2026-05-05 06:25 44.89014 122.08547 12785 ft 439 kts 18°
2026-05-05 06:25 45.00535 122.11061 12319 ft 411 kts 350°
2026-05-05 06:25 45.11967 122.10244 11831 ft 410 kts 351°
2026-05-05 06:26 45.23300 122.09474 11315 ft 404 kts 352°
2026-05-05 06:26 45.26306 122.09269 11443 ft 406 kts 352°
2026-05-05 06:26 45.29132 122.09074 11439 ft 407 kts 352°
2026-05-05 06:26 45.31956 122.08878 11443 ft 407 kts 352°
2026-05-05 06:27 45.34782 122.08681 11443 ft 406 kts 352°
2026-05-05 06:27 45.50772 122.07568 11438 ft 404 kts 352°
2026-05-05 06:27 45.57127 122.07129 11445 ft 398 kts 352°
2026-05-05 06:28 45.59822 122.06950 11337 ft 374 kts 352°
2026-05-05 06:28 45.62315 122.06791 11202 ft 344 kts 352°
2026-05-05 06:28 45.67435 122.06451 10731 ft 297 kts 351°
2026-05-05 06:28 45.75418 122.07768 9749 ft 294 kts
2026-05-05 06:29 45.83492 122.09507 9238 ft 291 kts
2026-05-05 06:29 45.88031 122.10500 8023 ft 308 kts
2026-05-05 06:29 45.90108 122.10961 7884 ft 296 kts
2026-05-05 06:29 45.92117 122.11410 7664 ft 289 kts
2026-05-05 06:30 45.94093 122.11851 7279 ft 288 kts
2026-05-05 06:30 45.96121 122.12298 6512 ft 302 kts
2026-05-05 06:30 45.98205 122.12756 6129 ft 300 kts
2026-05-05 06:30 46.00234 122.13204 5971 ft 290 kts
2026-05-05 06:31 46.02188 122.13650 5835 ft 278 kts 11°
2026-05-05 06:31 46.03942 122.14674 5553 ft 274 kts 32°
2026-05-05 06:31 46.05529 122.16248 4980 ft 280 kts 34°
2026-05-05 06:31 46.07125 122.17890 4451 ft 283 kts 35°
2026-05-05 06:32 46.08775 122.19356 4251 ft 272 kts 18°
2026-05-05 06:32 46.10548 122.19496 4097 ft 247 kts 343°
2026-05-05 06:32 46.11922 122.18215 3789 ft 231 kts 310°
2026-05-05 06:32 46.12825 122.16368 3476 ft 221 kts 300°
2026-05-05 06:33 46.13568 122.14482 3188 ft 212 kts 299°
2026-05-05 06:33 46.14269 122.12703 2930 ft 196 kts 300°
2026-05-05 06:33 46.14928 122.11116 2671 ft 174 kts 301°
2026-05-05 06:33 46.15537 122.09703 2414 ft 159 kts 300°
2026-05-05 06:34 46.16060 122.08353 2185 ft 151 kts 302°
2026-05-05 06:34 46.16628 122.07097 2004 ft 148 kts 302°
2026-05-05 06:34 46.17149 122.05820 1781 ft 147 kts 303°
2026-05-05 06:34 46.17692 122.04576 1602 ft 146 kts 302°
2026-05-05 06:35 46.18241 122.03337 1361 ft 146 kts 305°
2026-05-05 06:35 46.18837 122.02153 1052 ft 144 kts 306°
2026-05-05 06:35 46.19364 122.01096 990 ft 98 kts 305°
2026-05-05 06:35 46.19588 122.00639 997 ft 26 kts 306°
2026-05-05 06:36 46.19595 122.00432 993 ft 23 kts 209°
2026-05-05 06:36 46.19457 122.00302 995 ft 24 kts 218°
2026-05-05 06:36 46.19399 122.00238 993 ft 0 kts 215°